| time (UTC) | temp F | wind direction | speed knots | gust knots | rain 1hr in | rain 24hr in | rain mn in | humidity % | barometer mb |
| 20260505100150 | 52 | 192 | 0.0 | 1.7 | 0.00 | 0.00 | 0.00 | 92 | 1010.8 |
| 20260505090151 | 52 | 210 | 0.0 | 1.7 | 0.00 | 0.00 | 0.00 | 91 | 1010.7 |
| 20260505080150 | 53 | 191 | 0.0 | 0.0 | 0.00 | 0.00 | 0.00 | 88 | 1010.8 |
| 20260505070150 | 53 | 191 | 0.0 | 1.7 | 0.00 | 0.00 | 0.00 | 86 | 1011.0 |
| 20260505060152 | 53 | 194 | 0.9 | 2.6 | 0.00 | 0.00 | 0.00 | 83 | 1011.2 |
| 20260505050149 | 54 | 196 | 0.0 | 1.7 | 0.00 | 0.00 | 0.00 | 80 | 1011.5 |
| 20260505033149 | 55 | 204 | 0.9 | 2.6 | 0.00 | 0.00 | 0.00 | 77 | 1011.6 |
| 20260505030150 | 55 | 203 | 0.9 | 2.6 | 0.00 | 0.00 | 0.00 | 76 | 1011.5 |
| 20260505013149 | 57 | 205 | 0.9 | 5.2 | 0.00 | 0.00 | 0.00 | 70 | 1011.5 |
| 20260505010149 | 58 | 195 | 1.7 | 6.1 | 0.00 | 0.00 | 0.00 | 68 | 1011.1 |
| 20260505000150 | 59 | 215 | 1.7 | 5.2 | 0.00 | 0.00 | 0.00 | 62 | 1010.2 |
| 20260504220150 | 66 | 197 | 5.2 | 15.6 | 0.00 | 0.00 | 0.00 | 48 | 1009.7 |
| 20260504200150 | 68 | 204 | 7.0 | 15.6 | 0.00 | 0.00 | 0.00 | 41 | 1009.5 |
| 20260504190150 | 68 | 222 | 6.1 | 13.9 | 0.00 | 0.00 | 0.00 | 39 | 1009.7 |
| 20260504180150 | 69 | 226 | 3.5 | 12.2 | 0.00 | 0.00 | 0.00 | 34 | 1010.2 |
| 20260504170150 | 68 | 238 | 4.3 | 11.3 | 0.00 | 0.00 | 0.00 | 32 | 1010.7 |
| 20260504160150 | 67 | 237 | 6.1 | 18.2 | 0.00 | 0.00 | 0.00 | 33 | 1011.4 |
| 20260504150150 | 64 | 261 | 4.3 | 12.2 | 0.00 | 0.00 | 0.00 | 35 | 1012.1 |
| 20260504140150 | 62 | 250 | 4.3 | 12.2 | 0.00 | 0.00 | 0.00 | 38 | 1012.6 |
| 20260504130150 | 59 | 257 | 3.5 | 8.7 | 0.00 | 0.00 | 0.00 | 45 | 1013.2 |
| 20260504120150 | 50 | 189 | 0.0 | 2.6 | 0.00 | 0.00 | 0.00 | 66 | 1013.7 |